FJI257 NGFU-PKMJ

Flight info

Callsign FJI257
Flight time N/A
Altitude 34000
Route BODKI DCT NGTA DCT VAVEE DCT OGEVE
Aircraft A320/M-SDE3FGHIRWY/LB1

Departure

Time 2026-05-05 23:56
Airport Funafuti International Airport (NGFU)

Arrival

Time N/A
Airport Marshall Islands International Airport (PKMJ)
Time Latitude Longitude Altitude Speed Heading
2026-05-05 23:43 -8.52477 179.19531 11 ft 0 kts 251°
2026-05-05 23:45 -8.52474 179.19539 11 ft 2 kts 262°
2026-05-05 23:45 -8.52472 179.19549 11 ft 0 kts 244°
2026-05-05 23:50 -8.52476 179.19546 11 ft 1 kts 222°
2026-05-05 23:51 -8.52483 179.19545 13 ft 1 kts 188°
2026-05-05 23:51 -8.52488 179.19547 12 ft 1 kts 162°
2026-05-05 23:51 -8.52493 179.19551 12 ft 1 kts 148°
2026-05-05 23:51 -8.52510 179.19557 11 ft 6 kts 172°
2026-05-05 23:52 -8.52548 179.19540 10 ft 7 kts 216°
2026-05-05 23:52 -8.52584 179.19507 9 ft 7 kts 223°
2026-05-05 23:52 -8.52620 179.19472 11 ft 7 kts 224°
2026-05-05 23:52 -8.52652 179.19441 11 ft 9 kts 223°
2026-05-05 23:53 -8.52705 179.19390 11 ft 10 kts 223°
2026-05-05 23:53 -8.52752 179.19346 13 ft 8 kts 223°
2026-05-05 23:53 -8.52803 179.19298 12 ft 13 kts 222°
2026-05-05 23:53 -8.52848 179.19258 12 ft 4 kts 221°
2026-05-05 23:54 -8.52865 179.19245 13 ft 3 kts 210°
2026-05-05 23:54 -8.52882 179.19239 13 ft 1 kts 208°
2026-05-05 23:54 -8.52881 179.19235 13 ft 1 kts 253°
2026-05-05 23:54 -8.52876 179.19232 13 ft 1 kts 321°
2026-05-05 23:55 -8.52867 179.19239 14 ft 2 kts 40°
2026-05-05 23:55 -8.52861 179.19244 13 ft 0 kts 38°
2026-05-05 23:56 -8.52693 179.19400 11 ft 80 kts 43°
2026-05-05 23:56 -8.52089 179.19970 16 ft 154 kts 44°
2026-05-05 23:56 -8.51266 179.20766 676 ft 163 kts 43°
2026-05-05 23:57 -8.50395 179.21532 1513 ft 171 kts 41°
2026-05-05 23:57 -8.49375 179.22205 2258 ft 188 kts 20°
2026-05-05 23:57 -8.48006 179.22296 2748 ft 210 kts 346°
2026-05-05 23:57 -8.46580 179.21644 3033 ft 240 kts 328°
2026-05-05 23:58 -8.45132 179.20644 3572 ft 262 kts 324°
2026-05-05 23:58 -8.43636 179.19548 4443 ft 269 kts 324°
2026-05-05 23:58 -8.42099 179.18445 5404 ft 273 kts 326°
2026-05-05 23:58 -8.40519 179.17354 6356 ft 277 kts 327°
2026-05-05 23:59 -8.38900 179.16274 7238 ft 281 kts 327°
2026-05-05 23:59 -8.37248 179.15200 8145 ft 284 kts 328°
2026-05-05 23:59 -8.35568 179.14124 9048 ft 288 kts 328°
2026-05-05 23:59 -8.33860 179.13039 9931 ft 291 kts 328°
2026-05-06 00:00 -8.32097 179.11924 10429 ft 310 kts 328°
2026-05-06 00:00 -8.30203 179.10729 10792 ft 329 kts 328°
2026-05-06 00:00 -8.28264 179.09505 11473 ft 336 kts 328°
2026-05-06 00:00 -8.26274 179.08248 12227 ft 340 kts 327°
2026-05-06 00:01 -8.24257 179.06970 13018 ft 343 kts 327°
2026-05-06 00:01 -8.22226 179.05681 13771 ft 347 kts 327°